Location: Jasper Marmot Meadows
(52.8392°N, 118.0718°W)
Time: 12:17:35
(UTC-06:00)

N. Korean satellite - Visible Passes

Search period start: 21 September 2018 00:00
Search period end: 01 October 2018 00:00
Orbit: 458 x 511 km, 97.2° (Epoch: 20 September)

Date Brightness Start Highest point End Pass type
(mag) Time Alt. Az. Time Alt. Az. Time Alt. Az.
23 Sep 10.5 07:06:21 10° ENE 07:07:50 12° E 07:09:19 10° ESE visible
24 Sep 10.0 20:30:25 10° SW 20:32:35 15° W 20:34:46 10° NW visible
27 Sep 10.7 07:02:45 10° ENE 07:03:52 11° E 07:04:59 10° ESE visible
28 Sep 9.9 20:26:11 10° SW 20:28:35 17° W 20:31:01 10° NW visible
